Location: Brusselsch Zeekanaal
(50.8667°N, 4.3667°E)
Time: 03:06:18
(UTC+00:00)

Meteor 2-5 Rocket - Pass Details

Date: 08 November 2025
Orbit: 832 x 911 km, 81.2° (Epoch: 15 December)

Event Time Altitude Azimuth Distance (km) Brightness Sun altitude
Rises 05:36:21 0° 213° (SSW) 3,529 6.7 -11.3°
Reaches altitude 10° 05:38:57 10° 220° (SW) 2,587 6.0 -10.9°
Maximum altitude 05:44:32 42° 291° (WNW) 1,259 4.2 -10.0°
Drops below altitude 10° 05:50:05 10° 2° (N) 2,566 6.1 -9.2°
Sets 05:52:40 0° 9° (N) 3,497 6.8 -8.8°
